FW0788 Weather Reports


Display with metric or nautical units.
time (UTC)temp
F
wind
direction
speed
MPH
gust
MPH
rain 1hr
in
rain 24hr
in
rain mn
in
humidity
%
barometer
mb
20260901103045 56 41 2.0 21.0 0.04 0.10 0.10 91 1005.5
20260901101552 56 191 2.0 17.0 0.03 0.09 0.09 91 1005.6
20260901100043 57 174 0.0 17.0 0.03 0.07 0.07 90 1005.6
20260901094543 57 140 4.0 21.0 0.04 0.07 0.07 90 1005.7
20260901093142 57 163 3.0 19.0 0.04 0.06 0.06 90 1005.6
20260901091556 57 108 5.0 22.0 0.03 0.06 0.06 88 1005.8
20260901090041 57 179 4.0 23.0 0.02 0.04 0.04 88 1005.8
20260901084540 57 140 3.0 15.0 0.02 0.03 0.03 86 1005.8
20260901083040 58 113 8.0 22.0 0.01 0.02 0.02 83 1005.7
20260901081539 58 188 5.0 22.0 0.01 0.02 0.02 82 1005.4
20260901080037 59 175 6.0 14.0 0.00 0.02 0.02 79 1005.7
20260901074546 59 221 6.0 17.0 0.00 0.02 0.02 80 1005.8
20260901073035 58 224 6.0 13.0 0.00 0.02 0.02 82 1005.8
20260901071536 58 115 0.0 9.0 0.00 0.02 0.02 83 1006.0
20260901070032 57 138 0.0 6.0 0.00 0.02 0.02 85 1006.1
20260901064530 57 138 1.0 8.0 0.00 0.02 0.02 86 1006.4
20260901063032 57 135 0.0 7.0 0.01 0.02 0.02 86 1006.7
20260901061528 56 167 0.0 0.0 0.01 0.02 0.02 87 1006.9
20260901060025 57 188 0.0 0.0 0.02 0.02 0.02 87 1007.1
20260901054523 57 141 0.0 11.0 0.02 0.02 0.02 86 1007.4
20260901053022 57 200 0.0 9.0 0.01 0.01 0.01 85 1007.6
20260901051521 57 221 0.0 11.0 0.01 0.01 0.01 84 1007.6
20260901050020 59 156 0.0 10.0 0.00 0.00 0.00 80 1007.7
20260901044517 59 193 2.0 14.0 0.00 0.00 0.00 78 1008.0
20260901043021 60 173 2.0 17.0 0.00 0.00 0.00 78 1008.0
20260901041516 60 215 7.0 12.0 0.00 0.00 0.00 78 1008.2
20260901040014 60 159 4.0 15.0 0.00 0.00 0.00 79 1008.5
20260901034513 60 199 6.0 16.0 0.00 0.00 0.00 78 1008.7
20260901033011 61 210 5.0 12.0 0.00 0.00 0.00 78 1009.0
20260901031514 61 256 6.0 13.0 0.00 0.00 0.00 78 1009.6
20260901030006 60 189 9.0 17.0 0.00 0.00 0.00 78 1009.8
20260901024505 61 122 5.0 16.0 0.00 0.00 0.00 79 1010.3
20260901023012 61 120 7.0 16.0 0.00 0.00 0.00 78 1010.7
20260901021600 61 40 4.0 15.0 0.00 0.00 0.00 79 1011.1
20260901020057 61 147 6.0 18.0 0.00 0.00 0.00 79 1011.5
20260901014601 60 155 3.0 17.0 0.00 0.00 0.00 80 1012.0
20260901013051 60 135 3.0 10.0 0.00 0.00 0.00 80 1012.3
20260901011548 59 86 2.0 10.0 0.00 0.00 0.00 82 1012.7
20260901010044 58 280 0.0 8.0 0.00 0.00 0.00 85 1012.9
20260901004541 57 284 1.0 5.0 0.00 0.00 0.00 85 1013.1
20260901003044 57 246 0.0 0.0 0.00 0.00 0.00 84 1013.6
20260901001551 57 182 0.0 0.0 0.00 0.00 0.00 84 1013.9
20260901000032 55 84 0.0 0.0 0.00 0.00 0.00 85 1014.1
20260831234527 54 84 0.0 0.0 0.00 0.00 0.00 85 1014.5
20260831233023 53 84 0.0 0.0 0.00 0.00 0.00 87 1014.9
20260831231520 53 84 0.0 0.0 0.00 0.00 0.00 86 1015.2
20260831230017 52 198 0.0 0.0 0.00 0.00 0.00 86 1015.6
20260831224515 52 198 0.0 0.0 0.00 0.00 0.00 88 1015.7
20260831223011 51 199 0.0 0.0 0.00 0.00 0.00 89 1016.0
20260831221507 51 199 0.0 0.0 0.00 0.00 0.00 90 1016.4
20260831220004 50 199 0.0 0.0 0.00 0.00 0.00 91 1016.6
20260831214501 49 199 0.0 0.0 0.00 0.00 0.00 91 1016.8
20260831213058 49 199 0.0 0.0 0.00 0.00 0.00 91 1016.7
20260831211559 49 199 0.0 0.0 0.00 0.00 0.00 90 1016.7
20260831204556 49 199 0.0 0.0 0.00 0.00 0.00 90 1016.8
20260831203100 49 199 0.0 0.0 0.00 0.00 0.00 90 1016.9
20260831201547 49 199 0.0 0.0 0.00 0.00 0.00 89 1017.1
20260831200045 49 199 0.0 0.0 0.00 0.00 0.00 89 1017.3
20260831194545 49 199 0.0 0.0 0.00 0.00 0.00 88 1017.5
20260831193041 49 199 0.0 0.0 0.00 0.00 0.00 88 1017.8
20260831191551 49 200 0.0 0.0 0.00 0.00 0.00 88 1018.0
20260831190037 49 187 0.0 0.0 0.00 0.00 0.00 87 1018.2
20260831184536 50 169 0.0 0.0 0.00 0.00 0.00 88 1018.3
20260831183033 50 202 0.0 0.0 0.00 0.00 0.00 88 1018.4
20260831181529 50 223 0.0 0.0 0.00 0.00 0.00 88 1018.5
20260831180028 50 126 0.0 0.0 0.00 0.00 0.00 89 1018.8
20260831174520 50 110 0.0 0.0 0.00 0.00 0.00 89 1018.7
20260831173018 50 161 0.0 0.0 0.00 0.00 0.00 89 1018.9
20260831171515 50 182 0.0 0.0 0.00 0.00 0.00 90 1019.1
20260831170015 49 200 0.0 0.0 0.00 0.00 0.00 90 1019.2
20260831164507 49 134 0.0 0.0 0.00 0.00 0.00 90 1019.5
20260831163004 48 205 0.0 0.0 0.00 0.00 0.00 91 1019.8
20260831161503 48 126 0.0 0.0 0.00 0.00 0.00 90 1020.2
20260831160104 48 198 0.0 0.0 0.00 0.00 0.00 91 1020.5
20260831154559 48 159 0.0 0.0 0.00 0.00 0.00 90 1020.7
20260831153054 49 183 0.0 0.0 0.00 0.00 0.00 91 1020.7
20260831151553 48 139 0.0 0.0 0.00 0.00 0.00 90 1020.7
20260831150103 48 109 0.0 0.0 0.00 0.00 0.00 92 1020.8
20260831144551 47 235 0.0 0.0 0.00 0.00 0.00 90 1020.9
20260831143049 48 235 0.0 0.0 0.00 0.00 0.00 90 1021.0
20260831141549 48 235 0.0 0.0 0.00 0.00 0.00 90 1021.1
20260831140041 49 234 0.0 0.0 0.00 0.00 0.00 89 1021.2
20260831134544 49 236 0.0 0.0 0.00 0.00 0.00 89 1021.5
20260831133039 50 184 0.0 0.0 0.00 0.00 0.00 89 1021.6
20260831131536 49 93 0.0 3.0 0.00 0.00 0.00 90 1021.8
20260831130035 49 40 0.0 0.0 0.00 0.00 0.00 88 1021.9
20260831124550 50 285 0.0 0.0 0.00 0.00 0.00 89 1022.1
20260831123033 51 194 0.0 5.0 0.00 0.00 0.00 87 1022.2
20260831121533 51 121 0.0 2.0 0.00 0.00 0.00 87 1022.2
20260831120031 52 150 0.0 4.0 0.00 0.00 0.00 87 1022.4
20260831114543 52 102 1.0 9.0 0.00 0.00 0.00 87 1022.5
20260831113030 51 125 0.0 8.0 0.00 0.00 0.00 88 1022.4
20260831111531 51 62 0.0 0.0 0.00 0.00 0.00 88 1022.4
20260831110031 51 173 0.0 0.0 0.00 0.00 0.00 87 1022.5
20260831104542 51 115 0.0 0.0 0.00 0.00 0.00 87 1022.5